Voltar ao catálogo

STARLINK-30164

AtivoComunicaçõesVLEO
NORAD 57500·PAYLOAD·🇺🇸 United States

Lançado Aug 7, 2023 de Cape Canaveral Space Force Station

Loading…

Próximas Passagens (próximas 24 horas)

TLE

AtualizadoSource: CelesTrak SupGP

Época: Sep 15, 2026, 02:56 UTC

1 57500C 23113F   26258.12270833 -.00037308  00000+0 -13514-2 0  2582
2 57500  43.0019  26.2490 0001608 268.0172 195.7327 15.27595409    12

Acompanhe STARLINK-30164 em tempo real com AllMySat

Download on the App Store